Probability
52 61 87 87 84 84 81 81 84 84 84 84 81 77 81 81 81 77 74 74 68 74 71 68 58 48 52 48 55 55 48 52 58 61 58 58 61 65 71 61 61 65 87
52 65 81 84 81 81 77 81 77 81 81 81 77 71 81 81 81 77 77 71 68 74 68 61 58 55 52 45 52 52 55 48 55 58 55 52 58 65 71 71 68 81 84
55 61 81 84 81 81 77 74 77 77 77 77 77 74 74 77 77 71 68 68 71 71 68 65 58 52 52 52 48 45 45 48 48 52 58 52 55 74 74 71 74 74 77
61 55 65 84 81 77 77 74 74 71 71 74 74 68 68 74 74 71 65 68 71 71 68 61 55 48 48 39 39 42 45 48 48 58 55 35 35 77 81 71 81 81 74
68 68 77 87 87 77 77 77 77 71 71 71 74 71 68 71 71 71 71 68 68 65 65 65 48 48 45 39 39 48 48 48 48 65 45 23 45 84 81 74 68 74 74
61 68 74 87 84 84 77 77 77 77 74 74 74 77 71 71 68 71 65 55 58 55 52 42 42 42 39 35 35 35 45 45 48 39 32 39 55 84 81 68 65 68 77
61 68 71 87 84 81 74 74 71 71 71 74 74 74 65 71 61 58 55 55 52 55 55 45 39 39 39 35 39 39 39 42 39 19 13 32 48 84 77 71 68 71 77
61 65 77 87 84 81 77 71 71 71 71 71 71 71 65 61 65 61 52 48 52 52 45 45 45 45 42 39 42 39 42 42 29 13 16 29 65 74 68 65 68 71 81
55 68 71 74 77 81 77 74 74 71 71 68 68 71 65 61 61 58 58 58 58 52 48 48 48 45 39 45 45 45 45 48 35 16 10 32 65 68 61 65 65 65 74
52 58 61 55 61 65 68 71 68 71 68 68 68 68 65 61 68 61 61 55 55 52 48 48 48 48 48 55 61 61 55 52 23 10 6 35 58 61 61 65 68 58 58
58 55 58 52 58 48 52 65 68 68 68 68 68 68 68 68 61 58 52 55 48 52 48 48 52 48 48 52 58 58 52 29 13 6 16 39 52 55 55 55 52 58 52
61 52 58 55 52 45 48 55 55 48 65 61 61 65 65 68 65 55 48 55 52 52 48 52 52 55 42 42 42 55 35 26 16 10 19 52 48 45 48 42 42 45 42
52 45 58 48 55 61 55 52 52 52 55 58 58 65 65 68 58 52 52 48 52 48 45 48 52 42 35 35 39 42 42 32 19 16 29 52 45 39 35 39 35 39 45
52 39 45 45 61 71 58 58 61 58 58 58 61 58 61 65 58 58 52 48 42 35 39 35 35 32 29 35 35 29 32 32 35 29 39 42 42 42 39 35 35 26 35
52 52 58 65 74 74 74 71 61 61 55 55 68 65 61 52 48 42 48 48 42 42 39 32 32 35 29 19 19 19 23 29 32 32 32 39 39 35 35 29 29 29 29
55 58 52 61 68 71 68 68 65 58 61 58 58 55 52 52 48 45 45 42 35 39 39 45 42 39 39 26 23 26 29 26 32 39 32 29 35 35 35 32 29 26 29
58 55 65 61 68 68 65 65 61 58 58 61 61 58 55 48 48 48 42 39 32 39 39 39 39 42 35 29 35 39 35 39 35 32 26 23 23 32 32 32 32 32 26
52 55 55 45 61 71 68 71 55 52 55 58 55 55 52 45 39 42 42 35 35 35 32 39 39 35 26 35 29 35 29 32 39 32 26 26 23 16 23 32 32 29 29
58 55 55 58 68 68 71 71 61 65 52 48 52 42 35 35 29 32 35 35 35 35 29 23 29 29 32 32 23 26 26 26 26 19 23 23 26 26 19 26 29 29 26
52 55 58 55 65 68 68 74 71 58 52 52 39 39 39 39 23 26 29 26 29 32 29 26 26 32 29 19 16 16 26 29 26 23 19 19 23 16 23 16 16 19 26
48 52 55 61 68 71 68 61 61 52 48 45 35 35 35 29 26 23 23 23 35 26 23 23 29 23 19 19 23 13 13 19 29 29 19 16 13 13 19 26 10 6 6
45 48 52 52 61 68 71 68 61 52 39 42 35 32 29 26 23 19 19 23 29 26 26 29 26 19 16 19 19 16 13 13 19 6 10 16 10 13 10 10 16 19 0
48 48 48 55 55 58 58 58 52 45 42 35 35 39 29 26 23 26 16 19 19 16 16 16 16 16 19 23 19 13 13 10 6 13 6 6 6 6 13 3 16 16 16
42 48 48 55 52 52 55 52 45 42 32 39 42 35 32 29 23 26 23 23 19 16 16 19 19 19 19 19 23 19 10 10 6 6 6 6 10 13 10 10 3 16 16
35 42 42 48 52 52 52 42 45 39 35 32 35 32 39 26 26 19 26 23 23 29 23 23 23 23 23 19 19 13 13 10 13 3 3 3 6 6 10 13 16 19 16
32 35 35 45 48 48 48 39 35 42 42 39 35 32 29 23 23 19 23 26 23 26 23 23 26 23 19 19 19 13 19 13 10 10 6 3 3 3 3 6 10 16 19
Height
5875 5874 5874 5874 5874 5873 5873 5872 5872 5871 5871 5870 5870 5870 5869 5868 5868 5867 5867 5866 5866 5866 5866 5866 5867 5867 5867 5867 5868 5868 5868 5868 5868 5869 5869 5869 5869 5870 5871 5871 5872 5873 5873
5873 5873 5872 5872 5872 5871 5871 5870 5870 5869 5869 5869 5868 5868 5867 5866 5866 5865 5865 5865 5864 5864 5864 5864 5864 5865 5865 5865 5865 5866 5866 5866 5866 5867 5867 5867 5867 5868 5868 5869 5870 5870 5871
5871 5871 5871 5870 5870 5870 5869 5869 5868 5868 5867 5867 5866 5866 5865 5864 5864 5863 5863 5862 5862 5862 5862 5862 5862 5862 5863 5863 5863 5863 5864 5864 5864 5864 5864 5865 5865 5865 5866 5866 5867 5868 5869
5870 5870 5869 5869 5868 5867 5867 5867 5866 5866 5865 5865 5864 5864 5863 5862 5861 5861 5860 5860 5860 5860 5860 5860 5860 5860 5860 5861 5861 5861 5861 5861 5861 5861 5862 5862 5862 5862 5863 5863 5864 5865 5866
5869 5868 5867 5867 5866 5865 5865 5865 5864 5863 5863 5863 5862 5861 5861 5860 5859 5858 5858 5857 5857 5857 5857 5857 5857 5858 5858 5858 5858 5858 5858 5858 5858 5858 5858 5858 5859 5859 5860 5860 5861 5861 5862
5866 5866 5865 5865 5864 5863 5863 5862 5862 5861 5861 5860 5860 5859 5858 5857 5857 5856 5855 5855 5855 5855 5855 5855 5855 5855 5855 5855 5855 5855 5855 5855 5855 5855 5855 5854 5855 5855 5856 5857 5857 5858 5859
5864 5863 5863 5862 5862 5861 5860 5860 5859 5859 5858 5858 5857 5856 5856 5855 5854 5854 5853 5852 5852 5852 5852 5852 5852 5852 5852 5852 5852 5852 5852 5851 5851 5851 5851 5851 5851 5851 5852 5853 5853 5854 5855
5861 5861 5860 5859 5859 5859 5858 5857 5857 5856 5856 5855 5854 5854 5853 5852 5852 5851 5851 5850 5849 5849 5849 5849 5849 5849 5849 5849 5849 5849 5848 5848 5848 5848 5847 5848 5848 5848 5848 5848 5849 5850 5851
5857 5857 5857 5856 5856 5856 5855 5855 5854 5854 5853 5852 5851 5851 5850 5849 5849 5848 5848 5847 5847 5846 5846 5846 5846 5846 5846 5846 5845 5845 5845 5844 5844 5844 5844 5844 5844 5844 5844 5844 5845 5846 5847
5854 5853 5853 5854 5853 5853 5852 5852 5851 5850 5850 5849 5848 5847 5847 5846 5845 5845 5845 5844 5844 5843 5843 5843 5843 5843 5842 5842 5842 5841 5841 5841 5841 5841 5841 5840 5840 5840 5840 5840 5841 5842 5843
5852 5851 5850 5850 5850 5850 5849 5849 5848 5847 5846 5845 5844 5843 5843 5843 5842 5842 5841 5841 5840 5840 5840 5840 5840 5839 5839 5838 5838 5837 5837 5837 5837 5837 5837 5836 5836 5836 5836 5837 5837 5838 5838
5849 5848 5848 5847 5847 5847 5846 5845 5844 5844 5843 5842 5841 5839 5839 5839 5838 5838 5838 5837 5837 5836 5836 5836 5836 5836 5835 5835 5834 5833 5833 5833 5833 5833 5833 5832 5832 5832 5832 5833 5833 5834 5834
5845 5844 5844 5844 5843 5842 5842 5842 5841 5840 5839 5838 5838 5837 5836 5835 5835 5834 5834 5833 5833 5833 5833 5833 5832 5832 5831 5831 5830 5829 5829 5829 5829 5829 5828 5828 5828 5828 5828 5828 5829 5829 5829
5841 5840 5840 5840 5839 5839 5838 5837 5837 5836 5835 5835 5834 5833 5831 5831 5831 5830 5830 5829 5829 5828 5828 5828 5828 5827 5827 5827 5826 5825 5825 5824 5824 5824 5824 5824 5824 5823 5823 5823 5823 5824 5824
5837 5835 5835 5837 5836 5835 5834 5833 5833 5832 5831 5831 5830 5829 5828 5827 5826 5826 5826 5825 5824 5824 5824 5824 5823 5823 5823 5822 5822 5821 5820 5820 5820 5819 5819 5819 5819 5818 5818 5818 5818 5819 5819
5833 5831 5831 5833 5832 5831 5830 5829 5828 5827 5827 5826 5825 5824 5823 5822 5822 5821 5820 5820 5820 5819 5819 5819 5819 5819 5818 5818 5817 5816 5816 5815 5815 5814 5814 5814 5814 5814 5813 5813 5813 5814 5814
5829 5829 5828 5828 5827 5826 5826 5824 5824 5823 5822 5821 5820 5819 5818 5817 5817 5816 5816 5815 5815 5814 5814 5814 5814 5814 5813 5813 5812 5812 5811 5811 5810 5810 5809 5808 5808 5808 5808 5808 5808 5808 5808
5825 5825 5824 5823 5822 5822 5821 5820 5819 5819 5817 5816 5815 5814 5813 5812 5812 5812 5811 5811 5810 5809 5809 5809 5809 5809 5808 5808 5807 5807 5806 5806 5805 5805 5804 5803 5803 5802 5803 5802 5802 5802 5802
5820 5819 5819 5818 5818 5818 5817 5816 5815 5814 5812 5811 5810 5809 5808 5807 5806 5806 5806 5806 5805 5805 5805 5804 5804 5804 5803 5802 5802 5801 5800 5800 5800 5799 5798 5797 5797 5797 5796 5796 5796 5796 5796
5814 5814 5814 5813 5813 5812 5811 5811 5810 5808 5807 5806 5804 5803 5802 5802 5801 5800 5800 5800 5800 5800 5800 5799 5799 5798 5798 5797 5796 5795 5795 5794 5793 5793 5792 5791 5791 5791 5790 5790 5790 5790 5790
5810 5809 5809 5808 5807 5807 5806 5805 5804 5803 5802 5800 5799 5798 5797 5796 5795 5795 5794 5794 5794 5794 5794 5794 5793 5792 5792 5791 5790 5790 5789 5788 5787 5787 5786 5785 5784 5784 5784 5784 5783 5783 5783
5805 5804 5803 5802 5801 5801 5800 5799 5798 5797 5796 5794 5793 5792 5791 5791 5790 5789 5788 5788 5789 5789 5788 5788 5788 5787 5786 5785 5784 5783 5783 5783 5781 5780 5780 5779 5778 5777 5777 5777 5776 5776 5777
5800 5799 5798 5797 5795 5794 5794 5793 5792 5791 5790 5789 5788 5787 5786 5785 5784 5784 5783 5783 5783 5783 5782 5782 5781 5781 5780 5779 5778 5777 5776 5776 5775 5774 5773 5772 5771 5771 5770 5770 5769 5770 5770
5795 5793 5792 5790 5789 5789 5788 5787 5787 5786 5785 5784 5782 5781 5780 5780 5779 5778 5778 5777 5777 5777 5776 5775 5775 5775 5774 5773 5772 5771 5770 5769 5768 5768 5767 5765 5764 5764 5763 5763 5762 5762 5762
5789 5788 5786 5785 5784 5784 5782 5782 5781 5780 5779 5778 5777 5776 5775 5774 5773 5772 5772 5772 5771 5771 5770 5770 5769 5768 5768 5767 5766 5764 5763 5762 5761 5760 5760 5759 5758 5757 5756 5755 5755 5755 5754
5784 5783 5781 5780 5780 5779 5778 5777 5775 5775 5774 5773 5772 5771 5770 5769 5768 5767 5767 5767 5766 5765 5765 5764 5763 5762 5761 5760 5759 5758 5757 5756 5754 5753 5752 5752 5751 5749 5748 5748 5747 5747 5746
Wind_Speed
10 9 9 10 10 10 9 9 8 8 8 8 9 9 9 9 10 11 11 10 9 9 9 9 9 8 8 8 8 8 8 8 8 9 9 10 10 11 11 11 11 11 12
9 9 9 10 10 11 10 9 9 9 9 9 9 10 10 10 11 11 11 11 10 10 9 9 10 9 9 9 9 9 10 10 10 10 11 11 11 12 12 12 12 12 13
10 10 10 10 11 11 11 10 10 10 10 10 10 10 10 11 11 11 11 11 11 11 10 10 10 10 10 10 10 10 11 11 12 12 13 13 13 13 14 14 14 14 14
12 11 11 10 10 10 10 10 10 10 10 10 11 11 11 11 11 11 11 11 12 12 11 11 11 11 11 11 11 11 11 13 13 13 14 14 14 14 15 15 15 15 15
12 12 11 10 10 10 10 11 11 11 11 11 11 11 11 11 11 11 11 11 12 12 12 12 11 12 12 12 12 12 12 13 14 15 15 16 15 15 15 16 16 16 16
13 13 13 12 11 10 10 10 11 11 12 11 11 11 11 12 12 13 12 12 12 12 12 12 12 12 12 13 13 13 14 14 15 15 16 15 15 15 16 17 17 17 17
14 14 14 13 12 11 11 11 12 12 12 12 12 12 12 13 13 14 13 13 13 13 13 14 13 13 13 14 14 15 15 15 16 16 16 16 16 16 16 17 18 19 19
15 14 14 14 13 13 13 12 12 13 13 13 13 13 14 14 15 15 15 13 14 14 13 13 13 14 14 14 15 16 16 16 16 16 17 17 17 17 18 19 19 20 20
18 16 14 14 13 13 13 13 14 14 14 14 15 15 16 16 16 16 16 16 14 14 14 14 14 14 15 15 16 16 17 17 16 16 17 17 18 18 18 19 20 20 20
17 17 14 14 14 14 15 15 15 15 16 17 16 17 17 17 17 16 16 16 16 15 15 15 15 15 16 16 17 17 18 18 17 17 17 17 18 18 18 19 19 20 20
17 17 16 16 16 16 16 16 17 16 17 18 17 18 19 18 18 16 16 16 16 15 15 15 15 15 16 17 17 17 17 18 17 17 17 16 17 17 18 18 18 19 20
18 19 18 17 18 17 18 18 19 18 18 18 18 18 19 19 18 18 18 17 16 16 16 16 16 16 16 17 17 17 17 17 17 17 17 17 17 17 18 18 19 19 20
18 19 19 19 19 19 19 19 20 19 19 19 19 19 19 19 18 18 19 18 18 17 17 17 16 16 17 17 17 17 17 17 17 16 17 18 18 18 19 19 20 20 20
19 20 18 19 19 20 20 20 20 20 20 20 20 21 20 19 19 19 20 20 19 18 18 18 17 17 17 18 18 17 17 17 17 17 18 18 19 19 20 20 20 20 21
20 20 19 21 21 21 21 22 21 21 21 22 23 23 23 23 21 22 21 21 20 19 19 18 19 19 18 18 18 19 18 17 18 19 19 19 19 20 20 20 20 21 21
19 20 20 21 21 21 22 22 22 23 24 24 24 24 24 24 23 23 21 21 20 20 20 19 20 20 19 19 19 19 20 19 19 19 20 20 20 19 20 20 20 21 21
19 19 20 20 21 21 22 22 22 23 23 23 23 24 25 24 23 22 21 21 21 20 20 19 20 20 20 20 20 20 20 20 20 20 20 20 20 20 20 21 21 22 22
20 19 21 22 22 22 22 22 22 23 23 23 24 24 24 23 23 23 22 21 21 21 20 20 21 21 21 21 20 20 21 21 21 21 21 21 21 21 21 21 22 22 23
21 21 22 23 23 23 23 22 23 23 24 25 26 25 25 24 24 24 23 22 22 21 21 21 22 23 23 22 22 22 22 22 21 21 21 22 22 22 22 22 23 23 23
23 23 23 24 25 24 24 24 24 25 25 26 27 27 26 24 25 24 23 23 22 22 22 23 23 23 23 23 23 23 22 22 22 22 22 23 23 23 23 24 24 24 24
23 24 24 25 25 25 25 26 26 26 26 26 27 27 26 25 24 24 23 22 22 22 23 23 23 23 23 24 24 23 23 23 23 23 23 23 24 24 24 24 24 24 25
23 24 25 25 26 25 25 26 26 27 26 26 26 26 26 25 24 24 22 22 23 23 23 23 24 24 24 24 24 24 23 23 24 24 24 24 24 24 24 25 25 25 24
24 24 25 25 25 25 25 25 25 25 25 25 24 25 24 24 24 23 23 23 24 24 24 25 25 25 25 25 25 25 24 24 23 24 24 24 24 24 24 25 25 24 24
24 24 24 24 24 24 24 24 24 24 24 24 24 23 22 22 23 23 23 24 24 24 25 24 24 25 26 25 24 25 25 25 25 24 24 24 24 25 24 24 24 24 25
23 23 23 22 22 22 22 22 23 23 23 23 22 22 22 22 21 21 20 20 21 22 23 23 23 24 25 25 25 25 24 25 26 26 25 25 25 25 24 25 25 26 26
21 21 20 20 19 19 20 21 22 22 22 22 21 21 21 21 21 19 19 20 20 21 22 23 23 23 24 24 24 25 25 26 26 26 26 26 25 25 26 26 26 26 27
Wind_Direction
294 286 282 284 285 287 284 282 277 274 277 278 277 276 273 271 266 261 259 260 259 258 257 256 256 256 257 260 261 261 261 261 263 264 264 261 260 259 259 260 257 256 255
292 290 285 285 285 284 282 284 279 276 278 280 279 278 274 272 270 264 262 261 258 256 256 258 254 252 253 257 260 261 261 264 265 264 264 264 263 263 263 262 260 256 256
291 291 287 287 289 289 284 284 283 278 278 280 279 278 277 275 271 267 264 261 259 258 256 256 255 255 255 258 260 262 263 264 267 266 265 266 266 266 264 262 260 257 257
294 292 292 289 287 287 288 284 283 284 281 281 282 282 280 278 274 271 267 264 261 259 258 256 257 259 260 260 262 264 264 265 266 267 266 266 265 264 264 263 259 257 257
296 294 293 289 289 287 290 288 284 285 283 282 282 285 284 282 279 276 271 266 264 263 263 258 257 259 263 264 265 267 266 267 269 270 269 267 262 261 261 262 259 258 259
295 295 294 292 289 288 286 288 287 288 284 283 282 284 284 283 280 280 275 269 266 267 269 264 261 262 265 267 268 269 268 269 270 271 272 270 266 263 261 259 259 260 260
292 293 297 292 289 288 287 286 285 289 287 283 283 283 283 284 283 282 280 276 270 269 269 268 266 267 267 268 268 270 271 271 271 271 271 270 267 267 264 261 260 261 260
293 295 296 293 292 291 290 290 288 290 288 287 286 284 284 282 282 281 282 282 277 273 271 270 270 270 269 270 270 271 273 273 273 271 271 270 269 267 265 264 263 262 260
294 293 293 291 291 294 291 291 290 291 289 287 286 286 286 283 281 282 282 281 279 275 274 275 273 274 273 272 273 273 273 273 274 275 273 271 270 269 268 266 264 264 261
291 288 288 287 289 292 291 290 289 291 289 287 287 288 286 285 284 283 284 282 281 278 278 280 279 278 277 275 275 275 274 272 274 275 275 275 272 270 270 269 266 264 263
286 287 291 291 290 291 292 292 292 291 291 289 288 288 287 285 285 284 283 282 281 280 280 280 279 279 278 277 277 276 276 272 273 275 276 277 273 271 271 271 271 269 265
285 284 288 291 288 287 288 290 289 288 291 291 290 288 286 285 285 283 282 281 282 281 280 280 279 279 280 278 279 278 277 275 275 274 274 276 276 274 273 272 272 271 268
284 286 284 287 289 289 289 288 286 286 290 292 293 292 289 287 286 283 281 283 282 280 280 280 280 281 282 284 282 278 277 277 276 276 275 277 278 276 274 272 271 270 269
282 281 282 288 289 289 290 289 288 288 291 294 292 294 289 289 287 285 283 282 282 280 282 281 281 283 281 284 286 281 281 280 280 280 277 277 277 276 273 273 271 270 269
283 281 285 286 287 289 291 291 289 289 291 293 291 291 289 289 288 286 282 280 279 275 278 280 280 281 283 285 286 285 283 283 283 281 279 277 277 276 275 274 271 270 269
283 284 285 284 285 288 291 292 290 290 290 292 291 289 289 289 288 288 285 281 279 279 278 278 279 281 284 285 285 285 284 282 283 282 280 277 277 277 277 274 271 270 270
285 285 285 281 282 287 290 291 291 292 292 291 290 290 290 289 289 289 286 282 279 278 276 276 279 282 285 286 286 287 286 284 283 282 280 277 274 273 274 272 270 270 269
287 287 285 284 285 288 291 292 292 293 292 290 289 290 289 287 288 288 287 280 279 280 277 278 279 281 283 285 286 287 287 286 284 283 281 278 275 272 271 270 270 269 267
288 287 285 285 286 288 289 289 290 292 292 291 289 288 289 286 287 286 284 280 281 282 279 279 278 280 282 283 286 287 286 286 283 283 283 279 276 274 273 271 269 268 267
289 288 286 286 285 287 287 288 289 293 292 291 288 288 287 287 288 284 280 279 280 280 280 278 278 280 281 283 285 286 286 287 283 281 281 280 277 276 274 272 270 269 268
291 288 288 288 286 286 286 286 289 291 291 289 288 288 287 287 285 280 278 277 278 277 279 276 278 280 281 282 284 284 284 286 283 280 278 279 277 276 274 272 270 270 270
292 289 288 287 286 286 287 286 288 290 290 289 288 287 287 284 281 276 275 275 276 277 277 276 277 279 282 282 282 283 282 282 283 282 278 279 278 277 276 274 272 270 269
293 291 287 287 286 286 287 286 287 289 290 289 291 289 287 284 281 278 277 278 277 276 278 278 277 278 280 281 282 282 282 283 282 282 280 280 280 279 276 274 273 272 270
294 293 291 291 289 287 286 286 288 288 287 288 289 288 286 286 284 284 281 281 281 280 281 281 281 281 281 281 283 283 284 285 284 283 282 281 279 279 276 274 274 272 270
297 295 296 295 294 291 290 287 288 287 286 288 288 286 285 284 283 284 283 282 282 283 283 284 285 285 283 281 282 284 285 286 285 285 283 281 280 279 276 274 274 273 271
300 299 298 298 298 296 294 292 289 287 285 286 287 286 286 285 284 282 283 285 284 285 285 285 285 284 282 282 282 284 284 285 286 285 284 282 281 279 277 274 275 274 273